Vasteras, Sweden

9:58 AM CEST on May 28, 2017 (GMT +0200)
Hasslo Air Base

Weather History for ESOW - August, 2013

Change the Weather History Date:

Thursday, August 22, 2013

  Actual Average Record
Temperature  
Mean Temperature 58 °F -  
Max Temperature 68 °F 69 °F 84 °F (1996)
Min Temperature 46 °F 51 °F 41 °F (1999)
Degree Days  
Heating Degree Days 7    
Growing Degree Days 8 (Base 50)    
Moisture  
Dew Point 48 °F    
Average Humidity 67    
Maximum Humidity 94    
Minimum Humidity 46    
Precipitation  
Precipitation 0.00 in - - ()
Sea Level Pressure  
Sea Level Pressure 30.15 in    
Wind  
Wind Speed 7 mph ()    
Max Wind Speed 13 mph    
Max Gust Speed -    
Visibility 6.2 miles    
Events      
Averages and records for this station are not official NWS values.
T = Trace of Precipitation, MM = Missing Value Source: Averaged Metar Reports

Daily Weather History Graph

Daily Weather History Graph

Search for Another Location

Airport or City:

Trip Planner

Search our weather history database for the weather conditions in past years. The results will help you decide how hot, cold, wet, or windy it might be!

Date:

Astronomy

Aug. 22, 2013 Rise Set
Actual Time 5:26 AM CEST 8:24 PM CEST
Civil Twilight 4:38 AM CEST 9:11 PM CEST
Nautical Twilight 3:33 AM CEST 10:16 PM CEST
Astronomical Twilight 1:43 AM CEST 11:58 PM CEST
Moon 8:13 PM CEST (8/22) 7:31 AM CEST (8/22)
Length of Visible Light 16h 33m
Length of Day
14h 58m
Full, 98% of the Moon is Illuminated
Aug 22
Full
Aug 28
Last Quarter
Sep 5
New
Sep 12
First Quarter
Sep 19
Full

Hourly Weather History & Observations

Time (CEST) Temp. Dew Point Humidity Pressure Visibility Wind Dir Wind Speed Gust Speed Precip Events Conditions
12:20 AM 60.8 °F 51.8 °F 72% 30.06 in 6.2 mi WSW 8.1 mph - N/A   Unknown
12:50 AM 59.0 °F 51.8 °F 77% 30.06 in 6.2 mi WSW 8.1 mph - N/A   Unknown
1:20 AM 59.0 °F 51.8 °F 77% 30.04 in 6.2 mi WSW 8.1 mph - N/A   Unknown
1:50 AM 59.0 °F 51.8 °F 77% 30.04 in 6.2 mi WSW 9.2 mph - N/A   Unknown
2:20 AM 59.0 °F 51.8 °F 77% 30.04 in 6.2 mi WSW 8.1 mph - N/A   Scattered Clouds
2:50 AM 57.2 °F 51.8 °F 82% 30.04 in 6.2 mi WSW 5.8 mph - N/A   Partly Cloudy
3:20 AM 57.2 °F 51.8 °F 82% 30.04 in 6.2 mi West 4.6 mph - N/A   Unknown
3:50 AM 57.2 °F 51.8 °F 82% 30.04 in 6.2 mi WSW 3.5 mph - N/A   Unknown
4:20 AM 57.2 °F 51.8 °F 82% 30.04 in 6.2 mi WSW 5.8 mph - N/A   Unknown
4:50 AM 55.4 °F 50.0 °F 82% 30.06 in 6.2 mi West 5.8 mph - N/A   Unknown
5:20 AM 53.6 °F 48.2 °F 82% 30.06 in 6.2 mi NW 3.5 mph - N/A   Unknown
5:50 AM 51.8 °F 50.0 °F 94% 30.06 in - NNW 2.3 mph - N/A   Clear
6:20 AM 51.8 °F 50.0 °F 94% 30.06 in 6.2 mi North 5.8 mph - N/A   Partly Cloudy
6:50 AM 55.4 °F 51.8 °F 88% 30.09 in - North 5.8 mph - N/A   Clear
7:20 AM 57.2 °F 51.8 °F 82% 30.09 in - North 11.5 mph - N/A   Clear
7:50 AM 59.0 °F 51.8 °F 77% 30.09 in - NNE 11.5 mph - N/A   Clear
8:20 AM 59.0 °F 50.0 °F 72% 30.12 in - NNE 11.5 mph - N/A   Clear
8:50 AM 59.0 °F 51.8 °F 77% 30.12 in - North 9.2 mph - N/A   Clear
9:20 AM 60.8 °F 51.8 °F 72% 30.12 in - North 12.7 mph - N/A   Clear
9:50 AM 60.8 °F 48.2 °F 63% 30.12 in - North 12.7 mph - N/A   Clear
10:20 AM 62.6 °F 50.0 °F 63% 30.15 in - North 12.7 mph - N/A   Clear
10:50 AM 62.6 °F 50.0 °F 63% 30.15 in - North 11.5 mph - N/A   Clear
11:20 AM 64.4 °F 51.8 °F 64% 30.15 in 6.2 mi North 9.2 mph - N/A   Partly Cloudy
11:50 AM 64.4 °F 50.0 °F 59% 30.15 in 6.2 mi North 10.4 mph - N/A   Partly Cloudy
12:20 PM 66.2 °F 50.0 °F 56% 30.15 in 6.2 mi North 9.2 mph - N/A   Partly Cloudy
12:50 PM 66.2 °F 50.0 °F 56% 30.18 in 6.2 mi North 6.9 mph - N/A   Partly Cloudy
1:20 PM 66.2 °F 46.4 °F 49% 30.18 in - NNW 6.9 mph - N/A   Clear
1:50 PM 68.0 °F 46.4 °F 46% 30.18 in - North 8.1 mph - N/A   Clear
2:20 PM 68.0 °F 46.4 °F 46% 30.18 in - NNW 9.2 mph - N/A   Clear
2:50 PM 68.0 °F 46.4 °F 46% 30.18 in - NW 10.4 mph - N/A   Clear
3:20 PM 68.0 °F 46.4 °F 46% 30.18 in - NNW 9.2 mph - N/A   Clear
3:50 PM 68.0 °F 48.2 °F 49% 30.18 in - NW 10.4 mph - N/A   Clear
4:20 PM 68.0 °F 46.4 °F 46% 30.18 in - North 10.4 mph - N/A   Clear
4:50 PM 68.0 °F 46.4 °F 46% 30.18 in - NNW 9.2 mph - N/A   Clear
5:20 PM 64.4 °F 44.6 °F 49% 30.21 in - North 12.7 mph - N/A   Clear
5:50 PM 66.2 °F 44.6 °F 46% 30.21 in - North 10.4 mph - N/A   Clear
6:20 PM 66.2 °F 44.6 °F 46% 30.21 in - North 8.1 mph - N/A   Clear
6:50 PM 64.4 °F 44.6 °F 49% 30.21 in - North 10.4 mph - N/A   Clear
7:20 PM 62.6 °F 46.4 °F 55% 30.21 in - North 6.9 mph - N/A   Clear
7:50 PM 60.8 °F 46.4 °F 59% 30.21 in - North 5.8 mph - N/A   Clear
8:20 PM 57.2 °F 44.6 °F 63% 30.21 in - North 4.6 mph - N/A   Clear
8:50 PM 59.0 °F 42.8 °F 55% 30.24 in - North 2.3 mph - N/A   Clear
9:20 PM 51.8 °F 42.8 °F 71% 30.24 in - North 5.8 mph - N/A   Clear
9:50 PM 51.8 °F 44.6 °F 76% 30.24 in - Variable 1.2 mph - N/A   Clear
10:20 PM 48.2 °F 42.8 °F 82% 30.24 in - North 3.5 mph - N/A   Clear
10:50 PM 48.2 °F 42.8 °F 82% 30.27 in 6.2 mi Calm Calm - N/A   Unknown
11:20 PM 48.2 °F 42.8 °F 82% 30.27 in 6.2 mi Calm Calm - N/A   Unknown
11:50 PM 46.4 °F 42.8 °F 87% 30.27 in 6.2 mi Variable 2.3 mph - N/A   Unknown